Content
SEND FEEDBACK

Daily
Averages
Monthly
Summary
Italy

PERUGIA, ITALY


Home > Europe > Italy
Elevation: 1677 feet     Latitude: 43 07N     Longitude: 012 23E

WEATHER
 
SELECT A DAY
Number of Records: 109,606;   Date Range: 7/1/96 - 11/24/14
 
SHARE

PRINT THIS DATA

[ ← Previous Day ]
WEATHER ALMANAC - OCTOBER 15, 2013
[ Next Day → ]
[ °C ]   °F
Weather ElementAverageHighLow
Temperature63.2 °F69.8 °F (2:50 pm)55.4 °F (6:50 am)
Dewpoint59.9 °F62.6 °F (4:27 pm)55.4 °F (6:50 am)
Humidity89.5 %100 % (6:50 am)73 % (12:50 pm)
Barometer30.01 in30.09 in (6:50 am)29.92 in (11:50 pm)
Wind Speed3.5 mph6.9 mph (2:50 pm)
Weather ElementAverage
Visibility5.3 mi
Wind DirectionENE (80.5 °)

Weather ElementTotal
Precipitation---
Heating Degree Days2.4 (Base 65)
Growing Degree Days12.6 (Base 50)
Averaged from 20 records on October 15, 2013
WEATHER CONDITIONS BREAKOUT
WIND DIRECTION BREAKOUT
WEATHER BY HOUR - OCTOBER 15, 2013
[ °C ]   °F
Local TimeTemperatureDewpointHumidityBarometerVisibilityWind DirectionWind SpeedGust SpeedPrecipitationEventsConditions
6:50 AM55.4 °F55.4 °F100 %30.09 in6.2 miVariable1.2 mphMostly Cloudy
7:50 AM55.4 °F55.4 °F100 %30.09 in5.6 miVariable2.3 mphMostly Cloudy
8:50 AM57.2 °F57.2 °F100 %30.09 in6.2 miNorth (10°)3.5 mphMostly Cloudy
9:50 AM59.0 °F59.0 °F100 %30.09 in5.6 miVariable2.3 mphMostly Cloudy
10:50 AM62.6 °F59.0 °F88 %30.09 in5.6 miVariable2.3 mphMostly Cloudy
11:50 AM64.4 °F59.0 °F83 %30.09 in6.2 miVariable1.2 mphMostly Cloudy
12:50 PM68.0 °F59.0 °F73 %30.06 in6.2 miSSE (160°)3.5 mphPartly Cloudy
1:50 PM68.0 °F59.0 °F73 %30.04 in6.2 miSouth (180°)3.5 mphMostly Cloudy
2:50 PM69.8 °F60.8 °F73 %30.04 in6.2 miSouth (190°)6.9 mphMostly Cloudy
3:50 PM68.0 °F60.8 °F78 %30.01 in5.6 miSouth (180°)5.8 mphRain-ThunderstormLight Rain
4:27 PM66.2 °F62.6 °F88 %29.98 in5.0 miSouth (190°)4.6 mphRain-ThunderstormThunderstorms and Rain
4:50 PM66.2 °F62.6 °F88 %29.98 in2.5 miSouth (190°)5.8 mphRain-ThunderstormHeavy Thunderstorms and Rain
5:05 PM62.6 °F62.6 °F100 %29.98 in3.7 miVariable2.3 mphRain-ThunderstormThunderstorms and Rain
5:50 PM64.4 °F60.8 °F88 %29.95 in4.3 miVariable2.3 mphRain-ThunderstormLight Rain
6:50 PM64.4 °F60.8 °F88 %29.95 in5.0 miSouth (190°)5.8 mphRainLight Rain
7:50 PM62.6 °F60.8 °F94 %29.98 in5.0 miVariable2.3 mphRainLight Rain
8:50 PM62.6 °F60.8 °F94 %29.95 in5.6 miSE (140°)5.8 mphRainLight Rain
9:50 PM62.6 °F60.8 °F94 %29.95 in4.3 miSouth (180°)4.6 mphRainLight Rain
10:50 PM62.6 °F60.8 °F94 %29.95 in5.0 miVariable2.3 mphMostly Cloudy
11:50 PM62.6 °F60.8 °F94 %29.92 in5.0 miVariable2.3 mphMostly Cloudy
Hourly data recorded from LIRZ, located miles away from Perugia, Italy







STORIES FROM OUR PARTNERS